FENGYUN 1C DEB

Satellite information

Favourite Embed

Satellite Type and Status

DEBRISIN ORBIT

Key statistics

Satellite FENGYUN 1C DEB at a glance.

Uptime

9715

Days in orbit

Revolutions

≈ 14.2

Per day

Orbit

SSO

Sun Synchronous Orbit

Inclination

100.9

Latest

Satellite identification and parameters

Extended collection of information and parameters for FENGYUN 1C DEB.

Object identification

Identified? True

Debris? True

Object name: FENGYUN 1C DEB

International designator: 1999-025BNU

Object number (NORAD): 31286

Object ID (CCSDS): 31286

Country: PEOPLES REPUBLIC OF CHINA (PRC)

Current information (Y/N): Y

RCS size: SMALL

Orbital parameters

Period: 101.214 minutes

Inclination: 100.8574 deg

SMA: 7194.266 km

Apoapsis: 873.951 km

Periapsis: 758.311 km

RAAN: 235.7515 deg

Eccentricy: 0.00803692

Argument of periapsis: 283.1643 deg

Mean anomaly: 76.0569 deg

Mean motion: 14.22731752 rev/day

Mean motion (dot): 0.00013517 rev/day2

B* drag term: 0.0058507666 1/REarth

Two-line elements (TLE)

Creation date: Dec. 11, 2025, 7:14 p.m.

Reference frame: TEME

Reference center: EARTH

Epoch: Dec. 11, 2025, 10:26 a.m. UTC

TLE line 0: 0 FENGYUN 1C DEB

TLE line 1: 1 31286U 99025BNU 25345.43473558 .00013517 00000-0 58508-2 0 9998

TLE line 2: 2 31286 100.8574 235.7515 0080369 283.1643 76.0569 14.22731752640016

Live tracking on map

Real-time ground track for satellite FENGYUN 1C DEB.

In-orbit conjunctions

A list of the most updated potential collisions computed for object FENGYUN 1C DEB.

Target Orbit TCA Probability of collision Miss distance Type
SAPPHIRE LEO 2025-09-01 08:11:23 0.0002297028 727.0 (m) PAYLOAD
FENGYUN 1C DEB SSO 2025-06-14 04:59:23 0.000113005 502.0 (m) DEBRIS
METEOR 2-17 DEB LEO 2024-06-27 16:21:19 0.000527122 55.0 (m) DEBRIS

Associated space launch

Chinese polar orbiting meteorological satellite

FENGYUN 1C DEB was lifted into orbit during the mission ‘Long March 4B | Feng Yun 1C’, on board a Long March 4B space rocket.

The launch took place on May 10, 1999, 1:33 a.m. from Launch Complex 7.

For more information about the launch, click the button.

Launch to space Long March 4B | Feng Yun 1C
Long March 4B | Feng Yun 1C

Agency: N/A

Status: Launch Successful

Launch date: May 10, 1999, 1:33 a.m. UTC

Rocket: Long March 4B

Launch pad: Launch Complex 7

Location: Taiyuan Satellite Launch Center, People's Republic of China

...

Latest news about this satellite

There are no fresh news available about this satellite. Check back as we update our databases every day.


Newsletter sign-up

Weekly statistics, charts and insights to help you stay on top of the space industry.